Flag for U.S.A. Weather past 2 weeks in Binghamton, New York, U.S.A.

Now
75 °F

Partly sunny.


Feels Like: 76 °F
Forecast: 64 / 85 °F
Wind: No wind

Location: Binghamton Regional Airport

Current Time: Sep 1, 2015 at 11:18:01 AM

Latest Report: Sep 1, 2015 at 10:53 AM


Visibility: 8 mi

Pressure: 30.11 "Hg

Humidity: 74%

Dew point: 66 °F

Location of BinghamtonLocation

Historic Weather in Binghamton — Graph

°F

Binghamton temperature yesterday

Maximum temperature yesterday: 82 °F (at 3:53 PM)
Minimum temperature yesterday: 64 °F (at 4:53 AM)
Average temperature yesterday: 72 °F

Past Weeks' High & Low Weather Summary

 TemperatureHumidityPressure
High85 °F (Aug 17, 4:53 PM)100% (Aug 20, 11:53 PM)30.24 "Hg (Aug 20, 11:53 PM)
Low51 °F (Aug 22, 5:53 AM)44% (Aug 25, 4:53 PM)29.83 "Hg (Aug 24, 4:53 PM)
Average67 °F78%30.04 "Hg
* Reported Aug 17 9:53 AM — Sep 1 9:53 AM, Binghamton, Weather by CustomWeather, © 2015

Note: Actual official high and low records may vary slightly from our data, if they occured in-between our weather recording intervals... More about our weather records

Advertising

Binghamton weather history for previous 24 hours

 ConditionsComfort  
Time TempWeatherWind HumidityBarometerVisibility
9:53 AM
Tue, Sep 1
70 °FFog.No wind87%30.11 "Hg6 mi
8:53 AM63 °FFog.5 mph100%30.11 "Hg0 mi
7:53 AM63 °FFog.No wind100%30.09 "Hg0 mi
7:00 AM61 °FFog.No wind100%30.11 "Hg0 mi
5:53 AM66 °FFog.No wind96%30.06 "Hg4 mi
4:53 AM67 °FFog.3 mph93%30.06 "Hg6 mi
3:53 AM66 °FFog.5 mph93%30.06 "Hg5 mi
2:53 AM66 °FFog.3 mph96%30.05 "Hg5 mi
2:04 AM66 °FFog.3 mph93%30.09 "Hg5 mi
1:53 AM67 °FFog.3 mph93%30.06 "Hg5 mi
12:53 AM67 °FFog.No wind93%30.06 "Hg6 mi
11:53 PM
Mon, Aug 31
66 °FFog.No wind93%30.06 "Hg5 mi
10:53 PM69 °FClear.5 mph87%30.05 "Hg7 mi
9:53 PM71 °FClear.7 mph76%30.04 "Hg10 mi
8:53 PM73 °FClear.5 mph71%30.03 "Hg10 mi
7:53 PM75 °FSunny.6 mph66%30.02 "Hg10 mi
6:53 PM77 °FSunny.5 mph64%30.01 "Hg10 mi
5:53 PM80 °FSunny.10 mph56%30.01 "Hg10 mi
4:53 PM82 °FSunny.12 mph55%30.00 "Hg10 mi
3:53 PM82 °FPassing clouds.12 mph55%30.00 "Hg10 mi
2:53 PM81 °FScattered clouds.8 mph56%30.01 "Hg10 mi
1:53 PM79 °FBroken clouds.7 mph62%30.03 "Hg10 mi
12:53 PM77 °FCloudy.8 mph69%30.04 "Hg10 mi
11:53 AM78 °FPassing clouds.N/A66%30.06 "Hg10 mi
11:01 AM75 °FPartly sunny.6 mph76%30.10 "Hg10 mi
Weather by CustomWeather, © 2015

See weather overviewHow to use our weather pages